THORAD DELTA 1 DEB, 18693

Orbit data source: Space-Track

THORAD DELTA 1 DEB, 18693 is space debris in SSO originally from a launch on Fri, 15 Nov 1974 UTC launched from the Air Force Western Test Range (AFWTR). Debris objects in space refer to the collection of defunct objects orbiting the Earth. Examples of debris include non-operational satellites, rocket bodies, and fragments generated from explosions, collisions, or faulty payload assembly.

Loading next visibility...
Identifier
18693, 1974-089FA
Orbit
SSO
Country
Flag of USUS
Related business
Manufacturer
Unknown
Mission
Spacecraft
Bus & Motor
Unknown
Mass
Unknown
Launch date (UTC)
1974-11-15 (52 years ago)
Launch vehicle
Unknown
Launch site
Air Force Western Test Range (AFWTR)
Object type
Payload
Rocket body
Debris
Shape & HBR
Unknown shape, 0.1 m
Radar Cross Section
Medium (>0.1 m² and <1 m²)

Expand to show TLE details & history
Last TLE update: 2 days ago

TLE from 2 days ago
0 THORAD DELTA 1 DEB
1 18693U 74089FA  26206.38677275  .00000540  00000-0  18035-2 0  9994
2 18693 101.6577 161.0155 0218521  26.1965 123.3692 12.98104001786185
Epoch: 2026-07-25T09:16Z
TLE epoch observation values (Epoch: 2026-07-25T09:16:57.165Z)
Latitude
27.77865°
Longitude
-95.11414°
Altitude
1,367.137 km
Speed
7.133 km/s
True Right ascension
23h 08m 53s
True Declination
27° 38' 54"
Sunlit
Object was in daylight at epoch
Visualization orbit readout
Latitude
Unknown
Longitude
Unknown
Altitude
Unknown
Speed
Unknown
Apparent Right ascension
Unknown
Apparent Declination
Unknown
Sunlit
N/A
Visualization observer readout
Local Sidereal Time
17:04:27
Azimuth
Unknown
Elevation
Unknown
Doppler factor
Unknown
Orbital elements
Apogee altitude
1,434.067 km
Perigee altitude
1,099.942 km
Semi-major axis
7,645.142 km
Eccentricity
0.02185
Inclination
101.6577°
RAAN
161.0155°
Arg. of periapsis
26.1965°
True anomaly
125.42904°
Mean anomaly
123.3692°
Eccentric anomaly
124.40224°
Mean motion
3.24687 °/min
Orbital period
110.88 mins
BSTAR
0.0018035
Loading maneuver chart data...
Computing Atmospheric mass density...

Documentation

Showing up to 5 results
|